Location: Crab Orchard
(37.7292°N, 88.8042°W)
Time: 11:34:04
(UTC+00:00)

CZ-3 Stage 3 - Pass Details

Date: 08 December 2019
Orbit: 409 x 34781 km, 30.7° (Epoch: 23 January)

Event Time Altitude Azimuth Distance (km) Brightness Sun altitude
Rises 11:47:39 0° 255° (WSW) 15,094 8.6 -13.5°
Reaches altitude 10° 12:07:12 10° 254° (WSW) 8,675 7.4 -9.9°
Maximum altitude 12:25:01 48° 186° (S) 1,503 4.2 -6.7°
Drops below altitude 10° 12:28:58 10° 110° (ESE) 2,056 6.6 -5.9°
Sets 12:30:22 0° 102° (ESE) 2,665 7.4 -5.7°
